This is the latest recevied weather packets stored in our database for station/object KA9CBS. If no packets are shown the sender has not sent any weather packets the latest 10 day(s).
| Time | Temp. | Humidity | Pressure | Rain* | Wind** | Luminosity | Snow |
|---|---|---|---|---|---|---|---|
| 1777411697 | 17.78° C | 82% | 1015.6 hPa | 0 mm | - | 61 W/m² | - |
| 1777411392 | 17.78° C | 82% | 1015.5 hPa | 0 mm | - | 68 W/m² | - |
| 1777411091 | 17.78° C | 82% | 1015.7 hPa | 0 mm | - | 79 W/m² | - |
| 1777410787 | 17.78° C | 82% | 1016 hPa | 0 mm | - | 81 W/m² | - |
| 1777410485 | 17.78° C | 82% | 1016 hPa | 0 mm | - | 54 W/m² | - |
| 1777410185 | 18.33° C | 83% | 1016.2 hPa | 0 mm | - | 46 W/m² | - |
| 1777409880 | 18.33° C | 81% | 1016 hPa | 0 mm | - | 62 W/m² | - |
| 1777409575 | 18.33° C | 81% | 1016.3 hPa | 0 mm | - | 64 W/m² | - |
| 1777409271 | 17.78° C | 80% | 1016.3 hPa | 0 mm | - | 80 W/m² | - |
| 1777408968 | 18.33° C | 82% | 1016.3 hPa | 0 mm | - | 84 W/m² | - |
| 1777408664 | 18.33° C | 82% | 1016.5 hPa | 0 mm | - | 78 W/m² | - |
| 1777408360 | 18.89° C | 83% | 1016.4 hPa | 0 mm | - | 75 W/m² | - |
| 1777408059 | 18.33° C | 78% | 1016.3 hPa | 0 mm | - | 74 W/m² | - |
| 1777407756 | 18.33° C | 81% | 1016.6 hPa | 0 mm | - | 69 W/m² | - |
| 1777407451 | 18.33° C | 79% | 1017 hPa | 0 mm | - | 67 W/m² | - |
| 1777407147 | 18.33° C | 79% | 1016.6 hPa | 0 mm | - | 85 W/m² | - |
| 1777406842 | 18.33° C | 80% | 1016.3 hPa | 0 mm | - | 92 W/m² | - |
| 1777406537 | 18.33° C | 80% | 1016.2 hPa | 0 mm | - | 92 W/m² | - |
| 1777406233 | 18.33° C | 81% | 1016.2 hPa | 0 mm | - | 98 W/m² | - |
| 1777405932 | 18.89° C | 80% | 1016.7 hPa | 0 mm | - | 106 W/m² | - |
| 1777405629 | 18.89° C | 78% | 1016.7 hPa | 0 mm | - | 114 W/m² | - |
| 1777405326 | 18.33° C | 78% | 1016.6 hPa | 0 mm | - | 121 W/m² | - |
| 1777405021 | 18.89° C | 77% | 1016.3 hPa | 0 mm | - | 124 W/m² | - |
| 1777404716 | 18.33° C | 80% | 1016.6 hPa | 0 mm | - | 116 W/m² | - |
| 1777404412 | 18.33° C | 80% | 1016.3 hPa | 0 mm | - | 117 W/m² | - |
* Rain latest hour (hover to see other rain measurements)
** Current wind speed in m/s (hover to see current wind gust speed)